Location: Unspecified
(43.3830°N, 0.0000°E)
Time: 17:14:40
(UTC+00:00)

Tiros 1 - Visible Passes

Search period start: 24 June 2019 00:00
Search period end: 04 July 2019 00:00
Orbit: 631 x 664 km, 48.4° (Epoch: 23 June)

Date Brightness Start Highest point End Pass type
(mag) Time Alt. Az. Time Alt. Az. Time Alt. Az.
24 Jun 7.8 00:16:27 10° W 00:21:03 55° NNW 00:25:37 10° ENE visible
24 Jun 8.2 01:59:17 10° WNW 02:03:47 46° N 02:08:15 10° E visible
24 Jun 7.1 03:41:37 10° WNW 03:46:17 87° SSW 03:50:54 10° ESE visible
24 Jun 8.0 21:19:02 10° SSW 21:22:58 26° SE 21:26:52 10° E visible
24 Jun 7.1 23:00:06 10° WSW 23:04:50 84° NNW 23:09:31 10° ENE visible
25 Jun 8.2 00:42:53 10° WNW 00:47:23 45° N 00:51:52 10° ENE visible
25 Jun 7.7 02:25:29 10° WNW 02:30:06 59° NNE 02:34:41 10° E visible
25 Jun 7.2 21:44:13 10° SW 21:48:48 52° SSE 21:53:22 10° ENE visible
25 Jun 7.7 23:26:24 10° W 23:31:02 56° NNW 23:35:38 10° ENE visible
26 Jun 8.2 01:09:15 10° WNW 01:13:46 46° N 01:18:14 10° E visible
26 Jun 7.1 02:51:37 10° WNW 02:56:18 89° NNE 03:00:55 10° ESE visible
26 Jun 8.2 20:29:10 10° SSW 20:33:01 25° SE 20:36:50 10° E visible
26 Jun 7.1 22:10:06 10° WSW 22:14:50 88° NNW 22:19:32 10° ENE visible
26 Jun 8.2 23:52:51 10° W 23:57:22 46° N 00:01:52 10° ENE visible
27 Jun 7.7 01:35:29 10° WNW 01:40:06 57° NNE 01:44:40 10° E visible
27 Jun 7.3 03:17:48 10° WNW 03:22:18 50° SW 03:26:46 10° SE visible
27 Jun 7.3 20:54:16 10° SW 20:58:50 49° SE 21:03:22 10° ENE visible
27 Jun 7.7 22:36:22 10° W 22:41:02 58° NNW 22:45:39 10° ENE visible
28 Jun 8.2 00:19:14 10° WNW 00:23:45 45° N 00:28:14 10° ENE visible
28 Jun 7.1 02:01:37 10° WNW 02:06:18 85° NNE 02:10:56 10° ESE visible
28 Jun 8.1 03:44:19 10° W 03:48:08 25° SW 03:51:54 10° SSE visible
28 Jun 7.1 21:20:05 10° WSW 21:24:50 88° SSE 21:29:34 10° ENE visible
28 Jun 8.2 23:02:48 10° W 23:07:21 46° N 23:11:52 10° ENE visible
29 Jun 7.8 00:45:29 10° WNW 00:50:05 55° NNE 00:54:40 10° E visible
29 Jun 7.1 02:27:47 10° WNW 02:32:20 54° SSW 02:36:51 10° SE visible
29 Jun 7.7 21:46:20 10° W 21:51:01 61° NNW 21:55:40 10° ENE visible
29 Jun 8.2 23:29:12 10° WNW 23:33:44 45° N 23:38:13 10° ENE visible
30 Jun 7.1 01:11:37 10° WNW 01:16:19 81° NNE 01:20:57 10° ESE visible
30 Jun 8.0 02:54:15 10° W 02:58:11 27° SW 03:02:04 10° SSE visible
30 Jun 7.1 20:30:05 10° WSW 20:34:51 84° SSE 20:39:35 10° ENE visible
30 Jun 8.2 22:12:45 10° W 22:17:20 47° N 22:21:53 10° ENE visible
30 Jun 7.8 23:55:28 10° WNW 00:00:05 54° NNE 00:04:39 10° E visible
01 Jul 7.1 01:37:47 10° WNW 01:42:22 58° SSW 01:46:55 10° SE visible
01 Jul 8.8 03:21:51 10° WSW 03:23:49 13° SW 03:25:47 10° SSW visible
01 Jul 7.7 20:56:18 10° W 21:01:01 63° NNW 21:05:41 10° ENE visible
01 Jul 8.2 22:39:10 10° WNW 22:43:43 45° N 22:48:12 10° ENE visible
02 Jul 7.2 00:21:37 10° WNW 00:26:19 78° NNE 00:28:40 29° ESE visible
02 Jul 8.6 02:04:12 10° W 02:06:09 21° W 02:06:09 21° W visible
02 Jul 8.2 21:22:43 10° W 21:27:19 48° N 21:31:53 10° ENE visible
02 Jul 7.9 23:05:27 10° WNW 23:10:04 52° NNE 23:14:04 13° E visible
03 Jul 7.3 00:47:46 10° WNW 00:51:38 53° WSW 00:51:38 53° WSW visible
03 Jul 8.2 21:49:08 10° WNW 21:53:41 45° N 21:58:12 10° ENE visible
03 Jul 7.2 23:31:37 10° WNW 23:36:20 74° NNE 23:37:44 44° E visible
